Weather History for Cut Bank, MT

Change the Weather History Date:

Friday, December 28, 2012

  Actual Average Record
Temperature  
Mean Temperature 17 °F 21 °F  
Max Temperature 29 °F 32 °F 60 °F (1956)
Min Temperature 5 °F 11 °F -35 °F (1968)
Degree Days  
Heating Degree Days 48 44  
Month to date heating degree days 1260 1198  
Since 1 July heating degree days 3400 3461  
Cooling Degree Days 0 0  
Month to date cooling degree days 0 0  
Year to date cooling degree days 210 162  
Moisture  
Dew Point 13 °F    
Average Humidity 74    
Maximum Humidity 84    
Minimum Humidity 63    
Precipitation  
Precipitation 0.00 in 0.01 in 0.40 in (1923)
Month to date precipitation 0.18 0.20  
Year to date precipitation 9.03 10.88  
Snow  
Snow 0.00 in - - ()
Snow Depth -    
Sea Level Pressure  
Sea Level Pressure 30.06 in    
Wind  
Wind Speed 15 mph (West)    
Max Wind Speed 25 mph    
Max Gust Speed 31 mph    
Visibility 10 miles    
Events      
T = Trace of Precipitation, MM = Missing Value Source: NWS Daily Summary

Daily Weather History Graph

Daily Weather History Graph

Search for Another Location

Airport:

Trip Planner

Search our weather history database for the weather conditions in past years. The results will help you decide how hot, cold, wet, or windy it might be!

Date:

Astronomy

Dec. 28, 2012 Rise Set
Actual Time 8:21 AM MST 4:41 PM MST
Civil Twilight 7:44 AM MST 5:18 PM MST
Nautical Twilight 7:04 AM MST 5:58 PM MST
Astronomical Twilight 6:26 AM MST 6:36 PM MST
Moon 5:26 PM MST (12/28) 8:13 AM MST (12/28)
Length of Visible Light 9h 33m
Length of Day
8h 19m
Full, 100% of the Moon is Illuminated
Dec 28
Full
Jan 4
Last Quarter
Jan 11
New
Jan 18
First Quarter
Jan 26
Full

Hourly Weather History & Observations

Time (MST) Temp. Windchill Dew Point Humidity Pressure Visibility Wind Dir Wind Speed Gust Speed Precip Events Conditions
12:56 AM 12.0 °F 2.7 °F 7.0 °F 80% 30.05 in 10.0 mi WNW 5.8 mph - N/A   Clear
1:56 AM 12.0 °F -2.0 °F 7.0 °F 80% 30.04 in 10.0 mi WNW 11.5 mph - N/A   Clear
2:56 AM 12.0 °F 5.9 °F 6.1 °F 77% 30.05 in 10.0 mi SW 3.5 mph - N/A   Clear
3:56 AM 14.0 °F -0.8 °F 7.0 °F 74% 30.05 in 10.0 mi WNW 13.8 mph - N/A   Clear
4:56 AM 12.9 °F -3.4 °F 6.1 °F 74% 30.06 in 10.0 mi WNW 16.1 mph - N/A   Clear
5:56 AM 15.1 °F 5.2 °F 8.1 °F 74% 30.06 in 10.0 mi West 6.9 mph - N/A   Clear
6:56 AM 12.0 °F 5.9 °F 5.0 °F 73% 30.09 in 10.0 mi West 3.5 mph - N/A   Clear
7:56 AM 12.0 °F 5.9 °F 6.1 °F 77% 30.08 in 10.0 mi NW 3.5 mph - N/A   Clear
8:56 AM 16.0 °F 4.4 °F 9.0 °F 74% 30.09 in 10.0 mi West 9.2 mph - N/A   Clear
9:56 AM 21.9 °F 9.8 °F 14.0 °F 72% 30.08 in 10.0 mi West 12.7 mph - N/A   Clear
10:56 AM 26.1 °F 13.6 °F 16.0 °F 66% 30.06 in 10.0 mi West 16.1 mph - N/A   Clear
11:56 AM 28.0 °F 16.1 °F 18.0 °F 66% 30.05 in 10.0 mi West 16.1 mph - N/A   Clear
12:56 PM 28.0 °F 16.5 °F 19.0 °F 69% 30.04 in 10.0 mi WSW 15.0 mph - N/A   Clear
1:56 PM 28.0 °F 15.3 °F 18.0 °F 66% 30.04 in 10.0 mi WSW 18.4 mph - N/A   Clear
2:56 PM 28.0 °F 13.9 °F 18.0 °F 66% 30.05 in 10.0 mi West 23.0 mph - N/A   Clear
3:56 PM 27.0 °F 12.2 °F 16.0 °F 63% 30.06 in 10.0 mi West 24.2 mph - N/A   Clear
4:56 PM 25.0 °F 10.2 °F 16.0 °F 69% 30.08 in 10.0 mi WSW 21.9 mph - N/A   Clear
5:56 PM 24.1 °F 9.8 °F 15.1 °F 69% 30.07 in 10.0 mi WSW 19.6 mph - N/A   Clear
6:56 PM 24.1 °F 9.4 °F 15.1 °F 69% 30.08 in 10.0 mi West 20.7 mph - N/A   Clear
7:56 PM 23.0 °F 8.7 °F 16.0 °F 74% 30.09 in 10.0 mi WSW 18.4 mph - N/A   Clear
8:56 PM 24.1 °F 9.8 °F 16.0 °F 71% 30.07 in 10.0 mi WSW 19.6 mph - N/A   Clear
9:56 PM 26.1 °F 12.0 °F 17.1 °F 69% 30.05 in 10.0 mi WSW 20.7 mph - N/A   Clear
10:56 PM 26.1 °F 11.6 °F 16.0 °F 66% 30.04 in 10.0 mi West 21.9 mph - N/A   Clear
11:56 PM 26.1 °F 11.6 °F 16.0 °F 66% 30.03 in 10.0 mi West 21.9 mph - N/A   Clear